Memphis, TN

6:56 PM CDT on August 22, 2017 (GMT -0500)
Memphis International

Weather History for KMEM - December, 2012

Change the Weather History Date:

Thursday, December 27, 2012

  Actual Average Record
Temperature  
Mean Temperature 34 °F 42 °F  
Max Temperature 42 °F 50 °F 77 °F (2008)
Min Temperature 26 °F 33 °F 11 °F (1925)
Degree Days  
Heating Degree Days 31 23  
Month to date heating degree days 354 571  
Since 1 July heating degree days 911 1070  
Cooling Degree Days 0 0  
Month to date cooling degree days 4 0  
Year to date cooling degree days 2617 2256  
Moisture  
Dew Point 27 °F    
Average Humidity 78    
Maximum Humidity 100    
Minimum Humidity 55    
Precipitation  
Precipitation 0.00 in 0.17 in 2.22 in (1942)
Month to date precipitation 2.69 5.10  
Year to date precipitation 35.86 53.04  
Snow  
Snow 0.00 in 0.00 in 0.30 in (1983)
Month to date snowfall 0.9 0.1  
Since 1 July snowfall 0.9 0.1  
Snow Depth 0.00 in    
Sea Level Pressure  
Sea Level Pressure 30.13 in    
Wind  
Wind Speed 5 mph (ESE)    
Max Wind Speed 13 mph    
Max Gust Speed 16 mph    
Visibility 9 miles    
Events      
T = Trace of Precipitation, MM = Missing Value Source: NWS Daily Summary

Daily Weather History Graph

Daily Weather History Graph

Search for Another Location

Airport or City:

Trip Planner

Search our weather history database for the weather conditions in past years. The results will help you decide how hot, cold, wet, or windy it might be!

Date:

Astronomy

Dec. 27, 2012 Rise Set
Actual Time 7:06 AM CST 4:55 PM CST
Civil Twilight 6:38 AM CST 5:23 PM CST
Nautical Twilight 6:07 AM CST 5:55 PM CST
Astronomical Twilight 5:36 AM CST 6:26 PM CST
Moon 4:37 PM CST (12/27) 6:18 AM CST (12/27)
Length of Visible Light 10h 45m
Length of Day
9h 48m
Full, 100% of the Moon is Illuminated
Dec 27
Full
Dec 28
Full
Jan 4
Last Quarter
Jan 11
New
Jan 18
First Quarter

Hourly Weather History & Observations

Time (CST) Temp. Windchill Dew Point Humidity Pressure Visibility Wind Dir Wind Speed Gust Speed Precip Events Conditions
12:08 AM 30.2 °F - 26.6 °F 86% 30.18 in 8.0 mi Calm Calm - N/A   Scattered Clouds
12:54 AM 30.0 °F - 26.1 °F 85% 30.18 in 9.0 mi Calm Calm - N/A   Scattered Clouds
1:54 AM 28.9 °F 20.4 °F 25.0 °F 85% 30.14 in 8.0 mi East 9.2 mph - N/A   Mostly Cloudy
2:54 AM 28.0 °F - 26.1 °F 92% 30.17 in 8.0 mi Calm Calm - N/A   Mostly Cloudy
3:54 AM 28.0 °F - 26.1 °F 92% 30.16 in 8.0 mi Calm Calm - N/A   Mostly Cloudy
4:54 AM 28.9 °F 25.2 °F 26.1 °F 89% 30.17 in 8.0 mi North 3.5 mph - N/A   Scattered Clouds
5:54 AM 27.0 °F - 25.0 °F 92% 30.18 in 7.0 mi Calm Calm - N/A   Mostly Cloudy
6:54 AM 28.0 °F - 26.1 °F 92% 30.18 in 6.0 mi Calm Calm - N/A   Mostly Cloudy
7:54 AM 28.9 °F - 28.0 °F 96% 30.20 in 8.0 mi Calm Calm - N/A   Mostly Cloudy
8:54 AM 33.1 °F 27.7 °F 27.0 °F 78% 30.19 in 8.0 mi East 5.8 mph - N/A   Mostly Cloudy
9:54 AM 35.1 °F 29.3 °F 25.0 °F 67% 30.22 in 9.0 mi ENE 6.9 mph - N/A   Mostly Cloudy
10:54 AM 36.0 °F 29.6 °F 26.1 °F 67% 30.20 in 10.0 mi NE 8.1 mph - N/A   Mostly Cloudy
11:54 AM 37.0 °F - 26.1 °F 65% 30.17 in 10.0 mi Calm Calm - N/A   Overcast
12:54 PM 39.9 °F 37.8 °F 27.0 °F 60% 30.14 in 10.0 mi East 3.5 mph - N/A   Overcast
1:54 PM 42.1 °F 37.7 °F 28.0 °F 58% 30.12 in 10.0 mi Variable 6.9 mph - N/A   Overcast
2:54 PM 41.0 °F 36.4 °F 27.0 °F 57% 30.11 in 10.0 mi SE 6.9 mph - N/A   Overcast
3:54 PM 41.0 °F 39.0 °F 28.0 °F 60% 30.11 in 10.0 mi South 3.5 mph - N/A   Overcast
4:54 PM 39.9 °F 35.1 °F 28.0 °F 63% 30.10 in 10.0 mi ESE 6.9 mph - N/A   Overcast
5:54 PM 37.9 °F 33.5 °F 28.0 °F 68% 30.10 in 10.0 mi East 5.8 mph - N/A   Overcast
6:54 PM 37.0 °F 32.4 °F 28.0 °F 70% 30.09 in 10.0 mi ESE 5.8 mph - N/A   Overcast
7:54 PM 37.0 °F 32.4 °F 28.0 °F 70% 30.08 in 10.0 mi ESE 5.8 mph - N/A   Overcast
8:54 PM 37.0 °F 31.0 °F 28.0 °F 70% 30.06 in 10.0 mi SE 8.1 mph - N/A   Overcast
9:54 PM 36.0 °F 29.6 °F 28.0 °F 73% 30.06 in 10.0 mi SE 8.1 mph - N/A   Overcast
10:54 PM 35.1 °F 30.1 °F 28.0 °F 76% 30.06 in 10.0 mi East 5.8 mph - N/A   Overcast
11:54 PM 35.1 °F 27.4 °F 28.9 °F 78% 30.04 in 10.0 mi East 10.4 mph - N/A   Overcast